Location: Voyageurs National Park
(48.5020°N, 92.9292°W)
Time: 15:17:59
(UTC-05:00)

PCSat - Visible Passes

Search period start: 03 July 2015 00:00
Search period end: 13 July 2015 00:00
Orbit: 786 x 795 km, 67.1° (Epoch: 02 July)

Date Brightness Start Highest point End Pass type
(mag) Time Alt. Az. Time Alt. Az. Time Alt. Az.
03 Jul 9.9 01:06:19 10° NNW 01:11:45 63° NE 01:15:42 18° SE visible
03 Jul 10.7 02:50:25 10° NW 02:54:48 25° WSW 02:56:22 21° SW visible
03 Jul 12.0 22:52:50 10° NNW 22:56:08 16° NNE 22:59:31 10° ENE visible
04 Jul 10.3 00:35:38 10° NNW 00:40:54 49° NE 00:45:08 16° ESE visible
04 Jul 10.4 02:19:21 10° NW 02:24:11 33° WSW 02:25:49 27° SW visible
04 Jul 12.0 22:22:12 10° NNW 22:25:03 14° NNE 22:27:58 10° NE visible
05 Jul 10.7 00:04:56 10° NNW 00:10:02 39° NE 00:14:39 12° ESE visible
05 Jul 10.0 01:48:25 10° NW 01:53:33 43° WSW 01:55:20 32° SSW visible
05 Jul 12.1 21:51:33 10° N 21:53:56 13° NNE 21:56:23 10° NE visible
05 Jul 11.0 23:34:17 10° NNW 23:39:08 32° NE 23:44:00 10° ESE visible
06 Jul 9.7 01:17:33 10° NW 01:22:53 57° WSW 01:24:56 35° S visible
06 Jul 11.3 23:03:38 10° NNW 23:08:11 27° NE 23:12:46 10° E visible
07 Jul 9.5 00:46:44 10° NW 00:52:11 75° WSW 00:54:35 34° SSE visible
07 Jul 11.5 02:32:25 10° WNW 02:34:48 13° WSW 02:35:17 12° WSW visible
07 Jul 11.5 22:33:00 10° NNW 22:37:11 22° NNE 22:41:28 10° E visible
08 Jul 9.5 00:15:59 10° NW 00:21:27 85° ENE 00:24:18 29° SE visible
08 Jul 11.2 02:00:42 10° WNW 02:04:15 17° WSW 02:05:00 17° WSW visible
08 Jul 11.7 22:02:21 10° NNW 22:06:10 19° NNE 22:10:04 10° ENE visible
08 Jul 9.8 23:45:14 10° NNW 23:50:40 66° NE 23:54:03 23° SE visible
09 Jul 10.9 01:29:25 10° WNW 01:33:41 23° WSW 01:34:46 22° SW visible
09 Jul 10.1 23:14:32 10° NNW 23:19:51 52° NE 23:23:52 17° ESE visible
10 Jul 10.6 00:58:20 10° NW 01:03:05 31° WSW 01:04:33 26° SW visible
10 Jul 10.5 22:43:51 10° NNW 22:48:59 41° NE 22:53:42 12° ESE visible
11 Jul 10.3 00:27:22 10° NW 00:32:27 40° WSW 00:34:25 30° SSW visible
11 Jul 10.8 22:13:11 10° NNW 22:18:05 33° NE 22:23:01 10° ESE visible
11 Jul 9.9 23:56:29 10° NW 00:01:47 54° WSW 00:04:18 29° S visible
12 Jul 9.6 23:25:40 10° NW 23:31:06 71° WSW 23:34:13 26° SSE visible
